Regional Weather Roundup
Issued by NWS

Home | Current Version | Previous Version | Text Only | Print | Product List | Glossary On
Versions: 1 2 3 4 5 6 7 8 9 10 11 12 13 14 15 16 17 18 19 20 21 22 23 24 25 26 27 28 29 30 31 32 33 34 35 36 37 38 39 40 41 42 43 44 45 46 47 48 49 50
000
ASUS44 KLIX 191112
RWRLA
LOUISIANA WEATHER ROUNDUP
NATIONAL WEATHER SERVICE NEW ORLEANS LA
500 AM CST SUN NOV 19 2017

NOTE: "FAIR" INDICATES FEW OR NO CLOUDS BELOW 12,000 FEET WITH NO
      SIGNIFICANT WEATHER AND/OR OBSTRUCTIONS TO VISIBILITY.
      SKY/WX - SKY CONDITION AND SIGNIFICANT WEATHER.
      TMP - AIR TEMPERATURE.    DP   - DEWPOINT TEMPERATURE.
      RH  - RELATIVE HUMIDITY.  PRES - PRESSURE.
      HX  - HEAT INDEX.         WCI  - WIND CHILL INDEX.

*  THESE STATIONS ARE NOT NWS OR FAA STATIONS AND ARE NOT UNDER
   NWS QUALITY CONTROL.

LAZ040-048-061>063-065-066-069-191200-
SOUTHEAST LOUISIANA

CITY           SKY/WX    TMP DP  RH WIND       PRES   REMARKS
N.O. INTL ARPT CLEAR     54  41  61 N18G29    30.11R
N.O. LAKEFRONT CLEAR     54  42  64 N28G38    30.11R
N.O. DOWNTOWN* FAIR      54  39  57 N13G25    30.12R
RESERVE*       FAIR      52  36  54 N13G23    30.13R
SLIDELL        PTCLDY    49  39  68 N12       30.10R
BATON ROUGE    CLEAR     49  37  63 N8        30.16R
BOOTHVILLE     PTCLDY    58  47  66 N14G29    30.05R
BELLE CHASSE   PTCLDY    53  42  66 N9G22     30.10R
BOGALUSA*      NOT AVBL
GALLIANO*      PTSUNNY   54  40  58 N15G26    30.09R
NEW ROADS*     FAIR      48  36  63 N12G17    30.18R
GONZALES*      FAIR      50  37  61 N13G21    30.14R
HAMMOND*       CLEAR     46  36  66 N10G16    30.14R
HOUMA*         PTCLDY    52  38  58 N17G23    30.10S
PORT FOURCHON* NOT AVBL

$$

LAZ041-044-053-054-191200-
SOUTHWEST LOUISIANA

CITY           SKY/WX    TMP DP  RH WIND       PRES   REMARKS
LAKE CHARLES   CLEAR     50  35  56 N15G24    30.20R
LAFAYETTE      CLEAR     42  37  82 N15G29    30.17R
PATTERSON      CLEAR     52  41  66 N16       30.13R
SALT POINT       N/A     53  40  61 N8G17     30.12R
NEW IBERIA     CLEAR     50  38  63 N14       30.16R
CHENAULT AIRPK CLEAR     48  35  59 N9        30.21R

$$

LAZ027-028-191200-
CENTRAL LOUISIANA

CITY           SKY/WX    TMP DP  RH WIND       PRES   REMARKS
FORT POLK      CLEAR     45  35  68 N9        30.22R
ALEXANDRIA INT CLEAR     43  35  73 N7        30.21R
ALEXANDRIA     CLEAR     45  36  70 N3        30.22R

$$

LAZ001-002-191200-
NORTHWEST LOUISIANA

CITY           SKY/WX    TMP DP  RH WIND       PRES   REMARKS
SHREVEPORT     CLEAR     41  37  86 NW6       30.25S
BARKSDALE AFB  CLEAR     40  33  78 N5        30.25S
DTN SHREVEPORT CLEAR     43  35  73 NW8       30.26S

$$

LAZ014-016-191200-
NORTHEAST LOUISIANA

CITY           SKY/WX    TMP DP  RH WIND       PRES   REMARKS
MONROE         CLEAR     40  35  83 NW6       30.24R
TALLULAH       CLEAR     41  38  89 NW5       30.21R

$$




USA.gov is the U.S. government's official web portal to all federal, state and local government web resources and services.